| time (UTC) | temp F | wind direction | speed MPH | gust MPH | rain 1hr in | rain 24hr in | rain mn in | humidity % | barometer mb |
| 20260902203109 | 89 | 48 | 8.0 | 12.0 | 0.00 | 0.00 | 0.00 | 76 | 1017.3 |
| 20260902202347 | 89 | 51 | 8.0 | 12.0 | 0.00 | 0.00 | 0.00 | 76 | 1017.3 |
| 20260902201849 | 89 | 47 | 8.0 | 13.0 | 0.00 | 0.00 | 0.00 | 76 | 1017.2 |
| 20260902201352 | 89 | 61 | 7.0 | 13.0 | 0.00 | 0.00 | 0.00 | 75 | 1017.1 |
| 20260902200848 | 89 | 59 | 5.0 | 10.0 | 0.00 | 0.00 | 0.00 | 76 | 1017.0 |
| 20260902200348 | 89 | 65 | 6.0 | 14.0 | 0.00 | 0.00 | 0.00 | 77 | 1017.1 |
| 20260902195854 | 89 | 43 | 7.0 | 14.0 | 0.00 | 0.00 | 0.00 | 76 | 1017.1 |
| 20260902195338 | 89 | 52 | 7.0 | 14.0 | 0.00 | 0.00 | 0.00 | 75 | 1017.0 |
| 20260902194831 | 89 | 94 | 7.0 | 14.0 | 0.00 | 0.00 | 0.00 | 75 | 1017.0 |
| 20260902194550 | 89 | 50 | 5.0 | 12.0 | 0.00 | 0.00 | 0.00 | 75 | 1017.1 |
| 20260902193820 | 89 | 93 | 5.0 | 10.0 | 0.00 | 0.00 | 0.00 | 77 | 1017.1 |
| 20260902193314 | 89 | 36 | 5.0 | 10.0 | 0.00 | 0.00 | 0.00 | 77 | 1017.1 |
| 20260902192807 | 89 | 91 | 4.0 | 9.0 | 0.00 | 0.00 | 0.00 | 76 | 1017.1 |
| 20260902192300 | 89 | 92 | 4.0 | 11.0 | 0.00 | 0.00 | 0.00 | 78 | 1017.1 |
| 20260902191807 | 89 | 118 | 4.0 | 11.0 | 0.00 | 0.00 | 0.00 | 75 | 1017.2 |
| 20260902191510 | 89 | 55 | 4.0 | 10.0 | 0.00 | 0.00 | 0.00 | 77 | 1017.2 |
| 20260902190742 | 89 | 90 | 5.0 | 12.0 | 0.00 | 0.00 | 0.00 | 75 | 1017.2 |
| 20260902190237 | 89 | 122 | 6.0 | 12.0 | 0.00 | 0.00 | 0.00 | 76 | 1017.3 |
| 20260902185731 | 89 | 43 | 7.0 | 13.0 | 0.00 | 0.00 | 0.00 | 76 | 1017.4 |
| 20260902185446 | 89 | 55 | 7.0 | 13.0 | 0.00 | 0.00 | 0.00 | 75 | 1017.4 |
| 20260902184939 | 89 | 49 | 8.0 | 13.0 | 0.00 | 0.00 | 0.00 | 77 | 1017.4 |
| 20260902184213 | 89 | 41 | 8.0 | 13.0 | 0.00 | 0.00 | 0.00 | 75 | 1017.5 |
| 20260902183706 | 89 | 54 | 6.0 | 13.0 | 0.00 | 0.00 | 0.00 | 76 | 1017.6 |
| 20260902183200 | 90 | 70 | 5.0 | 11.0 | 0.00 | 0.00 | 0.00 | 75 | 1017.7 |
| 20260902182656 | 90 | 101 | 6.0 | 10.0 | 0.00 | 0.00 | 0.00 | 75 | 1017.7 |
| 20260902182410 | 90 | 39 | 6.0 | 10.0 | 0.00 | 0.00 | 0.00 | 74 | 1017.5 |
| 20260902181642 | 90 | 43 | 5.0 | 15.0 | 0.00 | 0.00 | 0.00 | 74 | 1017.5 |
| 20260902181138 | 91 | 44 | 5.0 | 15.0 | 0.00 | 0.00 | 0.00 | 74 | 1017.5 |
| 20260902180631 | 91 | 84 | 3.0 | 13.0 | 0.00 | 0.00 | 0.00 | 74 | 1017.5 |
| 20260902180123 | 91 | 67 | 3.0 | 8.0 | 0.00 | 0.00 | 0.00 | 74 | 1017.5 |
| 20260902175618 | 90 | 34 | 5.0 | 12.0 | 0.00 | 0.00 | 0.00 | 72 | 1017.6 |
| 20260902175112 | 90 | 120 | 6.0 | 12.0 | 0.00 | 0.00 | 0.00 | 72 | 1017.5 |
| 20260902174606 | 90 | 120 | 7.0 | 15.0 | 0.00 | 0.00 | 0.00 | 72 | 1017.3 |
| 20260902174334 | 90 | 43 | 7.0 | 15.0 | 0.00 | 0.00 | 0.00 | 71 | 1017.4 |
| 20260902173557 | 91 | 34 | 4.0 | 10.0 | 0.00 | 0.00 | 0.00 | 72 | 1017.3 |
| 20260902173050 | 91 | 91 | 5.0 | 11.0 | 0.00 | 0.00 | 0.00 | 72 | 1017.3 |
| 20260902172543 | 91 | 109 | 7.0 | 13.0 | 0.00 | 0.00 | 0.00 | 71 | 1017.3 |
| 20260902172037 | 91 | 49 | 5.0 | 13.0 | 0.00 | 0.00 | 0.00 | 70 | 1017.2 |
| 20260902171531 | 91 | 98 | 6.0 | 13.0 | 0.00 | 0.00 | 0.00 | 72 | 1017.1 |
| 20260902171025 | 91 | 43 | 7.0 | 13.0 | 0.00 | 0.00 | 0.00 | 71 | 1017.2 |
| 20260902170520 | 91 | 50 | 6.0 | 13.0 | 0.00 | 0.00 | 0.00 | 70 | 1017.2 |
| 20260902170014 | 91 | 55 | 8.0 | 13.0 | 0.00 | 0.00 | 0.00 | 69 | 1017.2 |
| 20260902165508 | 91 | 49 | 6.0 | 13.0 | 0.00 | 0.00 | 0.00 | 70 | 1017.3 |
| 20260902165000 | 91 | 32 | 5.0 | 11.0 | 0.00 | 0.00 | 0.00 | 70 | 1017.2 |
| 20260902164721 | 91 | 49 | 6.0 | 11.0 | 0.00 | 0.00 | 0.00 | 67 | 1017.3 |
| 20260902163948 | 91 | 65 | 7.0 | 13.0 | 0.00 | 0.00 | 0.00 | 69 | 1017.4 |
| 20260902163442 | 91 | 47 | 7.0 | 13.0 | 0.00 | 0.00 | 0.00 | 67 | 1017.4 |
| 20260902162936 | 92 | 41 | 5.0 | 11.0 | 0.00 | 0.00 | 0.00 | 68 | 1017.3 |
| 20260902162431 | 93 | 91 | 3.0 | 10.0 | 0.00 | 0.00 | 0.00 | 67 | 1017.3 |
| 20260902161925 | 93 | 230 | 2.0 | 8.0 | 0.00 | 0.00 | 0.00 | 68 | 1017.4 |
| 20260902161418 | 93 | 324 | 3.0 | 8.0 | 0.00 | 0.00 | 0.00 | 66 | 1017.3 |
| 20260902160409 | 92 | 355 | 3.0 | 9.0 | 0.00 | 0.00 | 0.00 | 66 | 1017.6 |
| 20260902155902 | 92 | 336 | 3.0 | 8.0 | 0.00 | 0.00 | 0.00 | 67 | 1017.6 |
| 20260902155834 | 92 | 73 | 3.0 | 7.0 | 0.00 | 0.00 | 0.00 | 67 | 1017.6 |
| 20260902154850 | 92 | 95 | 3.0 | 6.0 | 0.00 | 0.00 | 0.00 | 68 | 1017.6 |
| 20260902154342 | 92 | 53 | 3.0 | 7.0 | 0.00 | 0.00 | 0.00 | 68 | 1017.7 |
| 20260902154057 | 92 | 27 | 3.0 | 7.0 | 0.00 | 0.00 | 0.00 | 68 | 1017.7 |
| 20260902153329 | 92 | 276 | 3.0 | 7.0 | 0.00 | 0.00 | 0.00 | 68 | 1017.7 |
| 20260902152825 | 91 | 275 | 3.0 | 7.0 | 0.00 | 0.00 | 0.00 | 67 | 1017.7 |
| 20260902152318 | 91 | 252 | 3.0 | 8.0 | 0.00 | 0.00 | 0.00 | 68 | 1017.7 |
| 20260902151812 | 91 | 244 | 3.0 | 8.0 | 0.00 | 0.00 | 0.00 | 69 | 1017.7 |
| 20260902151307 | 91 | 175 | 3.0 | 10.0 | 0.00 | 0.00 | 0.00 | 67 | 1017.7 |
| 20260902150801 | 90 | 305 | 3.0 | 10.0 | 0.00 | 0.00 | 0.00 | 69 | 1017.7 |
| 20260902150254 | 91 | 350 | 4.0 | 9.0 | 0.00 | 0.00 | 0.00 | 69 | 1017.7 |
| 20260902145748 | 90 | 336 | 4.0 | 9.0 | 0.00 | 0.00 | 0.00 | 69 | 1017.7 |
| 20260902145738 | 90 | 284 | 3.0 | 10.0 | 0.00 | 0.00 | 0.00 | 71 | 1017.6 |
| 20260902144955 | 89 | 50 | 3.0 | 10.0 | 0.00 | 0.00 | 0.00 | 69 | 1017.6 |
| 20260902144230 | 89 | 283 | 3.0 | 9.0 | 0.00 | 0.00 | 0.00 | 71 | 1017.6 |
| 20260902143943 | 88 | 341 | 3.0 | 5.0 | 0.00 | 0.00 | 0.00 | 73 | 1017.7 |
| 20260902143219 | 88 | 43 | 3.0 | 5.0 | 0.00 | 0.00 | 0.00 | 73 | 1017.6 |
| 20260902142713 | 88 | 58 | 3.0 | 5.0 | 0.00 | 0.00 | 0.00 | 74 | 1017.5 |
| 20260902142208 | 88 | 71 | 3.0 | 5.0 | 0.00 | 0.00 | 0.00 | 74 | 1017.4 |
| 20260902141929 | 88 | 49 | 3.0 | 6.0 | 0.00 | 0.00 | 0.00 | 73 | 1017.4 |
| 20260902141156 | 88 | 33 | 2.0 | 6.0 | 0.00 | 0.00 | 0.00 | 74 | 1017.3 |
| 20260902140913 | 88 | 34 | 2.0 | 6.0 | 0.00 | 0.00 | 0.00 | 74 | 1017.3 |
| 20260902140142 | 88 | 57 | 2.0 | 4.0 | 0.00 | 0.00 | 0.00 | 73 | 1017.4 |
| 20260902135638 | 88 | 19 | 1.0 | 3.0 | 0.00 | 0.00 | 0.00 | 75 | 1017.3 |
| 20260902135131 | 87 | 261 | 1.0 | 4.0 | 0.00 | 0.00 | 0.00 | 76 | 1017.3 |
| 20260902134625 | 86 | 46 | 2.0 | 5.0 | 0.00 | 0.00 | 0.00 | 77 | 1017.2 |
| 20260902134118 | 86 | 48 | 2.0 | 6.0 | 0.00 | 0.00 | 0.00 | 76 | 1017.2 |
| 20260902133612 | 86 | 78 | 2.0 | 6.0 | 0.00 | 0.00 | 0.00 | 76 | 1017.0 |
| 20260902133105 | 86 | 43 | 1.0 | 4.0 | 0.00 | 0.00 | 0.00 | 76 | 1017.2 |
| 20260902132612 | 86 | 104 | 1.0 | 3.0 | 0.00 | 0.00 | 0.00 | 77 | 1017.0 |
| 20260902132054 | 85 | 106 | 1.0 | 3.0 | 0.00 | 0.00 | 0.00 | 77 | 1017.1 |
| 20260902131548 | 85 | 83 | 1.0 | 3.0 | 0.00 | 0.00 | 0.00 | 79 | 1017.1 |
| 20260902131311 | 84 | 102 | 2.0 | 5.0 | 0.00 | 0.00 | 0.00 | 78 | 1017.0 |
| 20260902130536 | 84 | 298 | 2.0 | 5.0 | 0.00 | 0.00 | 0.00 | 79 | 1017.0 |
| 20260902130032 | 83 | 279 | 1.0 | 4.0 | 0.00 | 0.00 | 0.00 | 83 | 1017.1 |
| 20260902125526 | 83 | 281 | 1.0 | 3.0 | 0.00 | 0.00 | 0.00 | 85 | 1016.9 |
| 20260902125020 | 82 | 284 | 1.0 | 2.0 | 0.00 | 0.00 | 0.00 | 86 | 1016.9 |
| 20260902124521 | 81 | 284 | 0.0 | 2.0 | 0.00 | 0.00 | 0.00 | 87 | 1016.9 |
| 20260902124019 | 80 | 289 | 0.0 | 0.0 | 0.00 | 0.00 | 0.00 | 88 | 1016.9 |
| 20260902123515 | 80 | 292 | 0.0 | 0.0 | 0.00 | 0.00 | 0.00 | 90 | 1016.8 |
| 20260902123014 | 79 | 292 | 0.0 | 0.0 | 0.00 | 0.00 | 0.00 | 90 | 1016.7 |
| 20260902122457 | 79 | 292 | 0.0 | 1.0 | 0.00 | 0.00 | 0.00 | 91 | 1016.7 |
| 20260902121956 | 78 | 292 | 1.0 | 4.0 | 0.00 | 0.00 | 0.00 | 91 | 1016.8 |
| 20260902121453 | 78 | 295 | 1.0 | 4.0 | 0.00 | 0.00 | 0.00 | 92 | 1016.9 |
| 20260902120947 | 78 | 303 | 1.0 | 4.0 | 0.00 | 0.00 | 0.00 | 92 | 1017.0 |
| 20260902120446 | 77 | 255 | 1.0 | 2.0 | 0.00 | 0.00 | 0.00 | 92 | 1017.0 |
| 20260902120413 | 76 | 255 | 1.0 | 3.0 | 0.00 | 0.00 | 0.00 | 92 | 1017.0 |
| 20260902120213 | 77 | 255 | 1.0 | 2.0 | 0.00 | 0.00 | 0.00 | 92 | 1017.0 |
| 20260902114945 | 76 | 255 | 1.0 | 3.0 | 0.00 | 0.00 | 0.00 | 92 | 1016.9 |
| 20260902114446 | 76 | 255 | 1.0 | 2.0 | 0.00 | 0.00 | 0.00 | 92 | 1017.0 |
| 20260902113945 | 76 | 255 | 1.0 | 2.0 | 0.00 | 0.00 | 0.00 | 92 | 1016.9 |
| 20260902113445 | 76 | 255 | 0.0 | 0.0 | 0.00 | 0.00 | 0.00 | 92 | 1016.9 |
| 20260902112944 | 75 | 255 | 0.0 | 1.0 | 0.00 | 0.00 | 0.00 | 92 | 1016.7 |
| 20260902112708 | 75 | 255 | 0.0 | 1.0 | 0.00 | 0.00 | 0.00 | 92 | 1016.6 |
| 20260902111946 | 75 | 255 | 0.0 | 0.0 | 0.00 | 0.00 | 0.00 | 92 | 1016.7 |
| 20260902111446 | 75 | 255 | 0.0 | 0.0 | 0.00 | 0.00 | 0.00 | 92 | 1016.7 |
| 20260902111206 | 75 | 255 | 0.0 | 1.0 | 0.00 | 0.00 | 0.00 | 92 | 1016.7 |
| 20260902110446 | 75 | 255 | 0.0 | 1.0 | 0.00 | 0.00 | 0.00 | 92 | 1016.6 |
| 20260902105945 | 75 | 255 | 0.0 | 1.0 | 0.00 | 0.00 | 0.00 | 92 | 1016.7 |
| 20260902105707 | 75 | 254 | 0.0 | 1.0 | 0.00 | 0.00 | 0.00 | 92 | 1016.6 |
| 20260902105211 | 75 | 254 | 0.0 | 1.0 | 0.00 | 0.00 | 0.00 | 92 | 1016.5 |
| 20260902104444 | 75 | 255 | 0.0 | 1.0 | 0.00 | 0.00 | 0.00 | 92 | 1016.5 |
| 20260902103943 | 75 | 255 | 0.0 | 0.0 | 0.00 | 0.00 | 0.00 | 92 | 1016.5 |
| 20260902103702 | 75 | 255 | 0.0 | 0.0 | 0.00 | 0.00 | 0.00 | 92 | 1016.5 |
| 20260902102932 | 75 | 254 | 0.0 | 0.0 | 0.00 | 0.00 | 0.00 | 92 | 1016.5 |
| 20260902102428 | 75 | 255 | 0.0 | 1.0 | 0.00 | 0.00 | 0.00 | 92 | 1016.5 |
| 20260902101920 | 75 | 254 | 0.0 | 1.0 | 0.00 | 0.00 | 0.00 | 92 | 1016.4 |
| 20260902101900 | 75 | 255 | 0.0 | 0.0 | 0.00 | 0.00 | 0.00 | 92 | 1016.4 |
| 20260902100907 | 75 | 253 | 0.0 | 1.0 | 0.00 | 0.00 | 0.00 | 92 | 1016.4 |
| 20260902100627 | 75 | 254 | 0.0 | 1.0 | 0.00 | 0.00 | 0.00 | 92 | 1016.6 |
| 20260902100119 | 75 | 255 | 0.0 | 1.0 | 0.00 | 0.00 | 0.00 | 92 | 1016.5 |
| 20260902095349 | 75 | 254 | 0.0 | 1.0 | 0.00 | 0.00 | 0.00 | 92 | 1016.5 |
| 20260902094843 | 76 | 255 | 0.0 | 1.0 | 0.00 | 0.00 | 0.00 | 92 | 1016.4 |
| 20260902094338 | 76 | 254 | 0.0 | 2.0 | 0.00 | 0.00 | 0.00 | 92 | 1016.4 |
| 20260902093831 | 76 | 254 | 0.0 | 2.0 | 0.00 | 0.00 | 0.00 | 92 | 1016.4 |
| 20260902093546 | 76 | 251 | 0.0 | 0.0 | 0.00 | 0.00 | 0.00 | 92 | 1016.3 |
| 20260902093046 | 76 | 251 | 0.0 | 0.0 | 0.00 | 0.00 | 0.00 | 92 | 1016.3 |
| 20260902092329 | 76 | 251 | 0.0 | 0.0 | 0.00 | 0.00 | 0.00 | 92 | 1016.2 |
| 20260902091808 | 76 | 251 | 0.0 | 0.0 | 0.00 | 0.00 | 0.00 | 92 | 1016.3 |
| 20260902091301 | 76 | 251 | 0.0 | 0.0 | 0.00 | 0.00 | 0.00 | 92 | 1016.3 |
| 20260902090756 | 76 | 250 | 0.0 | 0.0 | 0.00 | 0.00 | 0.00 | 92 | 1016.4 |
| 20260902090250 | 76 | 250 | 0.0 | 0.0 | 0.00 | 0.00 | 0.00 | 92 | 1016.4 |
| 20260902085743 | 76 | 250 | 0.0 | 0.0 | 0.00 | 0.00 | 0.00 | 92 | 1016.3 |
| 20260902085237 | 76 | 250 | 0.0 | 0.0 | 0.00 | 0.00 | 0.00 | 92 | 1016.3 |
| 20260902084731 | 76 | 250 | 0.0 | 0.0 | 0.00 | 0.00 | 0.00 | 92 | 1016.4 |
| 20260902084225 | 76 | 250 | 0.0 | 0.0 | 0.00 | 0.00 | 0.00 | 92 | 1016.3 |
| 20260902083721 | 76 | 250 | 0.0 | 0.0 | 0.00 | 0.00 | 0.00 | 92 | 1016.3 |
| 20260902083213 | 76 | 250 | 0.0 | 0.0 | 0.00 | 0.00 | 0.00 | 92 | 1016.2 |
| 20260902082708 | 76 | 250 | 0.0 | 0.0 | 0.00 | 0.00 | 0.00 | 92 | 1016.2 |
| 20260902082649 | 76 | 250 | 0.0 | 0.0 | 0.00 | 0.00 | 0.00 | 92 | 1016.2 |
| 20260902081655 | 76 | 250 | 0.0 | 0.0 | 0.00 | 0.00 | 0.00 | 92 | 1016.3 |
| 20260902081151 | 76 | 250 | 0.0 | 0.0 | 0.00 | 0.00 | 0.00 | 92 | 1016.3 |
| 20260902080656 | 76 | 250 | 0.0 | 0.0 | 0.00 | 0.00 | 0.00 | 92 | 1016.3 |
| 20260902080138 | 76 | 250 | 0.0 | 0.0 | 0.00 | 0.00 | 0.00 | 92 | 1016.3 |
| 20260902075632 | 76 | 250 | 0.0 | 0.0 | 0.00 | 0.00 | 0.00 | 91 | 1016.4 |
| 20260902075125 | 76 | 250 | 0.0 | 0.0 | 0.00 | 0.00 | 0.00 | 91 | 1016.2 |
| 20260902074621 | 76 | 251 | 0.0 | 0.0 | 0.00 | 0.00 | 0.00 | 91 | 1016.3 |
| 20260902074114 | 76 | 251 | 0.0 | 0.0 | 0.00 | 0.00 | 0.00 | 92 | 1016.3 |
| 20260902073609 | 76 | 251 | 0.0 | 0.0 | 0.00 | 0.00 | 0.00 | 91 | 1016.3 |
| 20260902073103 | 76 | 240 | 0.0 | 0.0 | 0.00 | 0.00 | 0.00 | 91 | 1016.3 |
| 20260902072816 | 76 | 240 | 0.0 | 0.0 | 0.00 | 0.00 | 0.00 | 91 | 1016.3 |
| 20260902072049 | 76 | 240 | 0.0 | 0.0 | 0.00 | 0.00 | 0.00 | 91 | 1016.2 |
| 20260902071549 | 76 | 240 | 0.0 | 0.0 | 0.00 | 0.00 | 0.00 | 91 | 1016.3 |
| 20260902071038 | 76 | 240 | 0.0 | 0.0 | 0.00 | 0.00 | 0.00 | 91 | 1016.2 |
| 20260902070531 | 76 | 240 | 0.0 | 0.0 | 0.00 | 0.00 | 0.00 | 91 | 1016.2 |
| 20260902070025 | 76 | 240 | 0.0 | 0.0 | 0.00 | 0.00 | 0.00 | 91 | 1016.2 |
| 20260902065521 | 76 | 240 | 0.0 | 0.0 | 0.00 | 0.00 | 0.00 | 91 | 1016.2 |
| 20260902065013 | 76 | 240 | 0.0 | 0.0 | 0.00 | 0.00 | 0.00 | 91 | 1016.2 |
| 20260902064509 | 76 | 240 | 0.0 | 0.0 | 0.00 | 0.00 | 0.00 | 91 | 1016.2 |
| 20260902064003 | 76 | 240 | 0.0 | 0.0 | 0.00 | 0.00 | 0.00 | 91 | 1016.2 |
| 20260902063944 | 76 | 240 | 0.0 | 0.0 | 0.00 | 0.00 | 0.00 | 91 | 1016.3 |
| 20260902062951 | 76 | 240 | 0.0 | 0.0 | 0.00 | 0.00 | 0.00 | 91 | 1016.3 |
| 20260902062445 | 76 | 240 | 0.0 | 0.0 | 0.00 | 0.00 | 0.00 | 91 | 1016.3 |
| 20260902061939 | 76 | 240 | 0.0 | 0.0 | 0.00 | 0.00 | 0.00 | 91 | 1016.2 |
| 20260902061432 | 76 | 240 | 0.0 | 0.0 | 0.00 | 0.00 | 0.00 | 91 | 1016.3 |
| 20260902060925 | 76 | 240 | 0.0 | 0.0 | 0.00 | 0.00 | 0.00 | 91 | 1016.3 |
| 20260902060422 | 76 | 240 | 0.0 | 0.0 | 0.00 | 0.00 | 0.00 | 91 | 1016.2 |
| 20260902055914 | 76 | 240 | 0.0 | 0.0 | 0.00 | 0.00 | 0.00 | 91 | 1016.4 |
| 20260902055851 | 76 | 240 | 0.0 | 0.0 | 0.00 | 0.00 | 0.00 | 91 | 1016.4 |
| 20260902054904 | 76 | 240 | 0.0 | 0.0 | 0.00 | 0.00 | 0.00 | 91 | 1016.4 |
| 20260902054408 | 76 | 240 | 0.0 | 0.0 | 0.00 | 0.00 | 0.00 | 90 | 1016.5 |
| 20260902053851 | 76 | 240 | 0.0 | 0.0 | 0.00 | 0.00 | 0.00 | 90 | 1016.5 |
| 20260902053346 | 76 | 240 | 0.0 | 0.0 | 0.00 | 0.00 | 0.00 | 90 | 1016.5 |
| 20260902052837 | 76 | 241 | 0.0 | 0.0 | 0.00 | 0.00 | 0.00 | 90 | 1016.5 |
| 20260902052338 | 76 | 240 | 0.0 | 0.0 | 0.00 | 0.00 | 0.00 | 90 | 1016.5 |
| 20260902051825 | 76 | 240 | 0.0 | 0.0 | 0.00 | 0.00 | 0.00 | 90 | 1016.4 |
| 20260902051321 | 76 | 240 | 0.0 | 0.0 | 0.00 | 0.00 | 0.00 | 90 | 1016.4 |
| 20260902051039 | 76 | 240 | 0.0 | 0.0 | 0.00 | 0.00 | 0.00 | 90 | 1016.4 |
| 20260902050320 | 76 | 241 | 0.0 | 0.0 | 0.00 | 0.00 | 0.00 | 90 | 1016.5 |
| 20260902045802 | 76 | 241 | 0.0 | 0.0 | 0.00 | 0.00 | 0.00 | 90 | 1016.4 |
| 20260902045522 | 76 | 241 | 0.0 | 0.0 | 0.00 | 0.00 | 0.00 | 90 | 1016.4 |
| 20260902044750 | 76 | 241 | 0.0 | 0.0 | 0.00 | 0.00 | 0.00 | 90 | 1016.4 |
| 20260902044245 | 76 | 241 | 0.0 | 1.0 | 0.00 | 0.00 | 0.00 | 90 | 1016.4 |
| 20260902043738 | 77 | 241 | 0.0 | 1.0 | 0.00 | 0.00 | 0.00 | 90 | 1016.4 |
| 20260902043234 | 77 | 241 | 0.0 | 1.0 | 0.00 | 0.00 | 0.00 | 90 | 1016.3 |
| 20260902042738 | 77 | 241 | 0.0 | 1.0 | 0.00 | 0.00 | 0.00 | 90 | 1016.2 |
| 20260902042220 | 77 | 241 | 0.0 | 1.0 | 0.00 | 0.00 | 0.00 | 90 | 1016.1 |
| 20260902041718 | 77 | 241 | 0.0 | 1.0 | 0.00 | 0.00 | 0.00 | 90 | 1016.0 |
| 20260902041208 | 77 | 241 | 0.0 | 1.0 | 0.00 | 0.00 | 0.00 | 90 | 1016.1 |
| 20260902040718 | 77 | 241 | 0.0 | 1.0 | 0.00 | 0.00 | 0.00 | 90 | 1016.1 |
| 20260902040207 | 77 | 241 | 0.0 | 1.0 | 0.00 | 0.00 | 0.00 | 90 | 1016.0 |
| 20260902035655 | 77 | 241 | 0.0 | 1.0 | 0.00 | 0.00 | 0.00 | 90 | 1015.9 |
| 20260902035143 | 77 | 241 | 0.0 | 1.0 | 0.00 | 0.00 | 0.00 | 90 | 1015.8 |
| 20260902034638 | 77 | 241 | 0.0 | 1.0 | 0.00 | 0.00 | 0.00 | 89 | 1015.8 |
| 20260902034132 | 77 | 241 | 0.0 | 1.0 | 0.00 | 0.00 | 0.00 | 89 | 1015.9 |
| 20260902033626 | 77 | 241 | 0.0 | 1.0 | 0.00 | 0.00 | 0.00 | 89 | 1015.9 |
| 20260902033131 | 77 | 240 | 0.0 | 1.0 | 0.00 | 0.00 | 0.00 | 89 | 1015.9 |
| 20260902032613 | 77 | 241 | 0.0 | 1.0 | 0.00 | 0.00 | 0.00 | 89 | 1015.9 |
| 20260902032107 | 78 | 241 | 0.0 | 1.0 | 0.00 | 0.00 | 0.00 | 89 | 1015.9 |
| 20260902031829 | 78 | 241 | 0.0 | 1.0 | 0.00 | 0.00 | 0.00 | 89 | 1016.1 |
| 20260902031055 | 78 | 241 | 0.0 | 1.0 | 0.00 | 0.00 | 0.00 | 89 | 1016.1 |
| 20260902030551 | 78 | 241 | 0.0 | 1.0 | 0.00 | 0.00 | 0.00 | 89 | 1015.9 |
| 20260902030044 | 78 | 241 | 0.0 | 1.0 | 0.00 | 0.00 | 0.00 | 89 | 1016.0 |
| 20260902025537 | 78 | 240 | 0.0 | 0.0 | 0.00 | 0.00 | 0.00 | 89 | 1016.0 |
| 20260902025031 | 78 | 242 | 0.0 | 0.0 | 0.00 | 0.00 | 0.00 | 89 | 1016.1 |
| 20260902024527 | 78 | 242 | 0.0 | 1.0 | 0.00 | 0.00 | 0.00 | 89 | 1016.0 |
| 20260902024022 | 78 | 242 | 0.0 | 1.0 | 0.00 | 0.00 | 0.00 | 89 | 1016.0 |
| 20260902023511 | 78 | 242 | 0.0 | 1.0 | 0.00 | 0.00 | 0.00 | 88 | 1016.1 |
| 20260902023007 | 78 | 242 | 0.0 | 1.0 | 0.00 | 0.00 | 0.00 | 88 | 1016.0 |
| 20260902022500 | 78 | 242 | 0.0 | 1.0 | 0.00 | 0.00 | 0.00 | 88 | 1016.0 |
| 20260902021953 | 78 | 242 | 0.0 | 1.0 | 0.00 | 0.00 | 0.00 | 88 | 1016.0 |
| 20260902021450 | 79 | 241 | 0.0 | 1.0 | 0.00 | 0.00 | 0.00 | 88 | 1015.9 |
| 20260902020938 | 79 | 242 | 0.0 | 1.0 | 0.00 | 0.00 | 0.00 | 88 | 1015.9 |
| 20260902020430 | 79 | 243 | 0.0 | 1.0 | 0.00 | 0.00 | 0.00 | 88 | 1015.9 |
| 20260902020146 | 79 | 242 | 0.0 | 1.0 | 0.00 | 0.00 | 0.00 | 88 | 1015.9 |
| 20260902015428 | 79 | 244 | 0.0 | 1.0 | 0.00 | 0.00 | 0.00 | 88 | 1015.7 |
| 20260902015148 | 79 | 244 | 0.0 | 1.0 | 0.00 | 0.00 | 0.00 | 87 | 1015.8 |
| 20260902014428 | 79 | 242 | 0.0 | 1.0 | 0.00 | 0.00 | 0.00 | 87 | 1015.8 |
| 20260902013924 | 79 | 242 | 0.0 | 1.0 | 0.00 | 0.00 | 0.00 | 87 | 1015.5 |
| 20260902013907 | 79 | 244 | 0.0 | 1.0 | 0.00 | 0.00 | 0.00 | 87 | 1015.4 |
| 20260902013359 | 79 | 242 | 0.0 | 1.0 | 0.00 | 0.00 | 0.00 | 87 | 1015.4 |
| 20260902012417 | 79 | 242 | 0.0 | 1.0 | 0.00 | 0.00 | 0.00 | 86 | 1015.2 |
| 20260902011855 | 80 | 244 | 0.0 | 1.0 | 0.00 | 0.00 | 0.00 | 86 | 1015.2 |
| 20260902011349 | 80 | 243 | 0.0 | 1.0 | 0.00 | 0.00 | 0.00 | 86 | 1015.2 |
| 20260902011120 | 80 | 242 | 0.0 | 1.0 | 0.00 | 0.00 | 0.00 | 86 | 1015.2 |
| 20260902010620 | 80 | 242 | 0.0 | 1.0 | 0.00 | 0.00 | 0.00 | 86 | 1015.2 |
| 20260902005830 | 80 | 242 | 0.0 | 1.0 | 0.00 | 0.00 | 0.00 | 86 | 1015.2 |
| 20260902005325 | 81 | 242 | 0.0 | 0.0 | 0.00 | 0.00 | 0.00 | 86 | 1015.1 |
| 20260902004818 | 81 | 242 | 0.0 | 1.0 | 0.00 | 0.00 | 0.00 | 86 | 1015.1 |
| 20260902004312 | 81 | 243 | 0.0 | 1.0 | 0.00 | 0.00 | 0.00 | 85 | 1015.1 |
| 20260902003806 | 81 | 242 | 0.0 | 1.0 | 0.00 | 0.00 | 0.00 | 85 | 1015.0 |
| 20260902003301 | 82 | 242 | 0.0 | 1.0 | 0.00 | 0.00 | 0.00 | 85 | 1015.0 |
| 20260902002755 | 82 | 242 | 0.0 | 0.0 | 0.00 | 0.00 | 0.00 | 84 | 1015.0 |
| 20260902002248 | 82 | 242 | 0.0 | 0.0 | 0.00 | 0.00 | 0.00 | 84 | 1014.9 |
| 20260902002001 | 82 | 243 | 0.0 | 0.0 | 0.00 | 0.00 | 0.00 | 83 | 1014.9 |
| 20260902001237 | 82 | 242 | 0.0 | 0.0 | 0.00 | 0.00 | 0.00 | 83 | 1014.9 |
| 20260902000730 | 83 | 242 | 0.0 | 0.0 | 0.00 | 0.00 | 0.00 | 83 | 1014.8 |
| 20260902000226 | 83 | 242 | 0.0 | 1.0 | 0.00 | 0.00 | 0.00 | 83 | 1014.8 |
| 20260901235718 | 83 | 242 | 0.0 | 1.0 | 0.00 | 0.00 | 0.00 | 83 | 1014.8 |
| 20260901235707 | 83 | 242 | 0.0 | 1.0 | 0.00 | 0.00 | 0.00 | 82 | 1014.7 |
| 20260901234705 | 84 | 242 | 0.0 | 1.0 | 0.00 | 0.00 | 0.00 | 82 | 1014.9 |
| 20260901234202 | 84 | 242 | 0.0 | 1.0 | 0.00 | 0.00 | 0.00 | 82 | 1015.0 |
| 20260901233654 | 85 | 242 | 0.0 | 0.0 | 0.00 | 0.00 | 0.00 | 81 | 1015.0 |
| 20260901233407 | 85 | 242 | 0.0 | 0.0 | 0.00 | 0.00 | 0.00 | 81 | 1015.0 |
| 20260901232650 | 86 | 242 | 0.0 | 1.0 | 0.00 | 0.00 | 0.00 | 81 | 1015.1 |
| 20260901232150 | 86 | 242 | 0.0 | 1.0 | 0.00 | 0.00 | 0.00 | 81 | 1015.2 |
| 20260901231649 | 86 | 17 | 0.0 | 1.0 | 0.00 | 0.00 | 0.00 | 81 | 1015.2 |
| 20260901231148 | 87 | 17 | 0.0 | 0.0 | 0.00 | 0.00 | 0.00 | 80 | 1015.3 |
| 20260901230643 | 87 | 17 | 0.0 | 1.0 | 0.00 | 0.00 | 0.00 | 79 | 1015.3 |
| 20260901230143 | 88 | 17 | 0.0 | 1.0 | 0.00 | 0.00 | 0.00 | 78 | 1015.4 |
| 20260901225642 | 89 | 17 | 0.0 | 0.0 | 0.00 | 0.00 | 0.00 | 77 | 1015.5 |
| 20260901225619 | 89 | 17 | 0.0 | 0.0 | 0.00 | 0.00 | 0.00 | 77 | 1015.5 |
| 20260901224642 | 89 | 17 | 0.0 | 0.0 | 0.00 | 0.00 | 0.00 | 77 | 1015.4 |
| 20260901224408 | 89 | 17 | 0.0 | 1.0 | 0.00 | 0.00 | 0.00 | 76 | 1015.5 |
| 20260901223856 | 90 | 17 | 0.0 | 1.0 | 0.00 | 0.00 | 0.00 | 75 | 1015.5 |
| 20260901223143 | 91 | 17 | 0.0 | 1.0 | 0.00 | 0.00 | 0.00 | 73 | 1015.5 |
| 20260901222641 | 91 | 17 | 0.0 | 0.0 | 0.00 | 0.00 | 0.00 | 73 | 1015.5 |
| 20260901222358 | 91 | 17 | 0.0 | 0.0 | 0.00 | 0.00 | 0.00 | 73 | 1015.4 |
| 20260901221857 | 91 | 17 | 0.0 | 1.0 | 0.00 | 0.00 | 0.00 | 74 | 1015.4 |
| 20260901221155 | 91 | 18 | 0.0 | 1.0 | 0.00 | 0.00 | 0.00 | 73 | 1015.4 |
| 20260901220915 | 91 | 17 | 0.0 | 1.0 | 0.00 | 0.00 | 0.00 | 73 | 1015.4 |
| 20260901220139 | 91 | 17 | 0.0 | 1.0 | 0.00 | 0.00 | 0.00 | 72 | 1015.4 |
| 20260901215903 | 91 | 17 | 0.0 | 0.0 | 0.00 | 0.00 | 0.00 | 74 | 1015.3 |
| 20260901215153 | 91 | 17 | 0.0 | 1.0 | 0.00 | 0.00 | 0.00 | 74 | 1015.3 |
| 20260901214903 | 91 | 17 | 0.0 | 1.0 | 0.00 | 0.00 | 0.00 | 73 | 1015.4 |
| 20260901214142 | 91 | 17 | 0.0 | 1.0 | 0.00 | 0.00 | 0.00 | 73 | 1015.4 |
| 20260901213637 | 92 | 7 | 0.0 | 1.0 | 0.00 | 0.00 | 0.00 | 71 | 1015.5 |
| 20260901213140 | 92 | 7 | 1.0 | 3.0 | 0.00 | 0.00 | 0.00 | 69 | 1015.4 |
| 20260901212857 | 93 | 7 | 1.0 | 3.0 | 0.00 | 0.00 | 0.00 | 69 | 1015.5 |
| 20260901212141 | 93 | 1 | 1.0 | 3.0 | 0.00 | 0.00 | 0.00 | 70 | 1015.6 |
| 20260901211640 | 93 | 1 | 2.0 | 4.0 | 0.00 | 0.00 | 0.00 | 65 | 1015.6 |
| 20260901211142 | 92 | 33 | 1.0 | 4.0 | 0.00 | 0.00 | 0.00 | 64 | 1015.6 |
| 20260901210639 | 93 | 66 | 0.0 | 1.0 | 0.00 | 0.00 | 0.00 | 71 | 1015.6 |
| 20260901210137 | 93 | 66 | 1.0 | 3.0 | 0.00 | 0.00 | 0.00 | 68 | 1015.5 |
| 20260901205648 | 93 | 64 | 3.0 | 8.0 | 0.00 | 0.00 | 0.00 | 65 | 1015.5 |
| 20260901205138 | 92 | 78 | 3.0 | 8.0 | 0.00 | 0.00 | 0.00 | 67 | 1015.5 |
| 20260901204628 | 93 | 39 | 1.0 | 4.0 | 0.00 | 0.00 | 0.00 | 71 | 1015.6 |
| 20260901204124 | 93 | 170 | 1.0 | 2.0 | 0.00 | 0.00 | 0.00 | 71 | 1015.4 |
| 20260901203617 | 93 | 172 | 2.0 | 5.0 | 0.00 | 0.00 | 0.00 | 70 | 1015.4 |